Date String (YYYY-MM-DD hh:mm:ss) UTC,Instrument flags,absolute air pressure of the measurement (hPa),sample flow rate (lpm),inlet stack bypass flow (lpm),air temperature of the measurement (°C),ambient temperature measured by the external sensor (°C),aerosol sample conditioner tube jacket temperature (°C),OPC LED temperature (°C),internal box temperature (°C),relative humidity of the measurement (%),span deviation,mass concentration of particles derived from Lorenz-Mie calculation of OPC scattering (μg/m³),mass concentration of particles derived from Lorenz-Mie calculation of OPC scattering (μg/m³),mass concentration of particles derived from Lorenz-Mie calculation of OPC scattering (μg/m³)
DateTimeUTC,F1_M11,P_M11,Q1_M11,Q2_M11,T1_M11,T2_M11,T3_M11,T4_M11,T5_M11,U1_M11,ZSPAN_M11,X0_M11,X2_M11,X1_M11
2023-07-19 20:00:00,SystemResetWarning,0836.3,5.00,000.00,029.4,024.9,000.0,037.5,030.4,29.4,0000.0,0009.16,0004.81,0004.24
2023-07-19 20:01:00,SystemResetWarning,0836.3,5.01,000.00,029.3,025.1,000.0,037.5,030.2,30.1,0000.0,0009.28,0004.84,0004.23
2023-07-19 20:02:00,SystemResetWarning,0836.4,5.01,000.00,029.3,025.5,000.0,037.5,030.2,29.5,0000.0,0009.49,0004.85,0004.22
2023-07-19 20:03:00,SystemResetWarning,0836.3,4.99,000.00,029.2,026.0,000.0,037.5,030.3,27.5,0000.0,0009.94,0004.83,0004.22
2023-07-19 20:04:00,SystemResetWarning,0836.3,5.00,000.00,029.2,026.4,000.0,037.5,030.5,26.8,0000.0,0010.35,0004.84,0004.23
2023-07-19 20:05:00,SystemResetWarning,0836.3,5.00,000.00,029.3,026.8,000.0,037.5,030.6,28.3,0000.0,0010.25,0004.87,0004.23
2023-07-19 20:06:00,SystemResetWarning,0836.3,5.00,000.00,029.3,027.2,000.0,037.6,030.7,27.5,0000.0,0010.05,0004.88,0004.22
2023-07-19 20:07:00,SystemResetWarning,0836.4,5.00,000.00,029.3,027.5,000.0,037.6,030.7,28.4,0000.0,0010.29,0004.89,0004.22
2023-07-19 20:08:00,SystemResetWarning,0836.4,5.01,000.00,029.4,027.7,000.0,037.6,030.8,28.7,0000.0,0010.86,0004.91,0004.21
2023-07-19 20:09:00,SystemResetWarning,0836.4,4.99,000.00,029.4,027.5,000.0,037.6,030.9,28.5,0000.0,0010.91,0004.89,0004.22
2023-07-19 20:10:00,SystemResetWarning,0836.5,5.00,000.00,029.4,026.0,000.0,037.5,030.6,29.7,0000.0,0011.05,0004.95,0004.23
2023-07-19 20:11:00,SystemResetWarning,0836.5,5.02,000.00,029.3,025.0,000.0,037.4,030.4,29.5,0000.0,0011.25,0004.96,0004.23
2023-07-19 20:12:00,SystemResetWarning,0836.6,5.00,000.00,029.2,025.1,000.0,037.3,030.3,28.8,0000.0,0011.44,0004.96,0004.24
2023-07-19 20:13:00,SystemResetWarning,0836.6,4.99,000.00,029.1,025.4,000.0,037.4,030.2,29.3,0000.0,0011.37,0004.97,0004.25
2023-07-19 20:14:00,SystemResetWarning,0836.6,5.00,000.00,029.1,025.9,000.0,037.4,030.3,29.3,0000.0,0011.97,0005.00,0004.27
2023-07-19 20:15:00,SystemResetWarning,0836.6,5.01,000.00,029.1,026.3,000.0,037.4,030.4,29.1,0000.0,0011.80,0004.99,0004.27
2023-07-19 20:16:00,SystemResetWarning,0836.6,5.00,000.00,029.1,026.7,000.0,037.4,030.5,28.3,0000.0,0011.76,0004.99,0004.25
2023-07-19 20:17:00,SystemResetWarning,0836.7,4.99,000.00,029.1,027.1,000.0,037.5,030.6,28.5,0000.0,0011.39,0004.98,0004.25
2023-07-19 20:18:00,SystemResetWarning,0836.7,4.99,000.00,029.2,027.4,000.0,037.5,030.7,29.3,0000.0,0011.19,0004.96,0004.25
2023-07-19 20:19:00,SystemResetWarning,0836.7,5.00,000.00,029.2,027.7,000.0,037.5,030.7,29.8,0000.0,0010.97,0004.90,0004.25
2023-07-19 20:20:00,SystemResetWarning,0836.8,4.99,000.00,029.3,027.0,000.0,037.4,030.8,30.2,0000.0,0010.84,0004.88,0004.25
2023-07-19 20:21:00,SystemResetWarning,0836.7,5.00,000.00,029.2,025.3,000.0,037.3,030.5,30.0,0000.0,0011.30,0004.87,0004.26
2023-07-19 20:22:00,SystemResetWarning,0836.6,5.00,000.00,029.1,024.7,000.0,037.3,030.3,29.4,0000.0,0011.11,0004.89,0004.28
2023-07-19 20:23:00,SystemResetWarning,0836.6,5.02,000.00,029.0,025.0,000.0,037.3,030.2,29.0,0000.0,0011.07,0004.92,0004.31
2023-07-19 20:24:00,SystemResetWarning,0836.6,4.99,000.00,029.0,025.5,000.0,037.3,030.2,29.2,0000.0,0011.02,0004.88,0004.31
2023-07-19 20:25:00,SystemResetWarning,0836.6,5.00,000.00,028.9,025.9,000.0,037.3,030.3,29.5,0000.0,0010.32,0004.89,0004.31
2023-07-19 20:26:00,SystemResetWarning,0836.5,5.01,000.00,029.0,026.4,000.0,037.3,030.4,28.8,0000.0,0009.84,0004.90,0004.32
2023-07-19 20:27:00,SystemResetWarning,0836.4,5.00,000.00,029.0,026.8,000.0,037.4,030.5,28.6,0000.0,0009.77,0004.92,0004.34
2023-07-19 20:28:00,SystemResetWarning,0836.4,4.99,000.00,029.0,027.1,000.0,037.4,030.6,28.1,0000.0,0009.96,0004.93,0004.35
2023-07-19 20:29:00,SystemResetWarning,0836.3,5.00,000.00,029.1,027.4,000.0,037.4,030.6,28.0,0000.0,0010.61,0005.00,0004.37
2023-07-19 20:30:00,SystemResetWarning,0836.3,5.00,000.00,029.1,027.7,000.0,037.4,030.7,27.6,0000.0,0010.39,0005.07,0004.39
2023-07-19 20:31:00,SystemResetWarning,0836.4,5.00,000.00,029.2,027.9,000.0,037.4,030.8,27.8,0000.0,0010.34,0005.10,0004.42
2023-07-19 20:32:00,SystemResetWarning,0836.4,4.99,000.00,029.2,027.6,000.0,037.4,030.8,28.0,0000.0,0010.04,0005.15,0004.43
2023-07-19 20:33:00,SystemResetWarning,0836.4,5.00,000.00,029.2,025.9,000.0,037.3,030.6,27.4,0000.0,0010.53,0005.18,0004.43
2023-07-19 20:34:00,SystemResetWarning,0836.4,5.00,000.00,029.1,025.0,000.0,037.2,030.4,27.5,0000.0,0010.60,0005.16,0004.43
2023-07-19 20:35:00,SystemResetWarning,0836.3,5.01,000.00,029.0,025.1,000.0,037.2,030.3,27.7,0000.0,0010.94,0005.16,0004.43
2023-07-19 20:36:00,SystemResetWarning,0836.3,5.01,000.00,029.0,025.5,000.0,037.2,030.2,27.9,0000.0,0010.74,0005.18,0004.43
2023-07-19 20:37:00,SystemResetWarning,0836.3,4.99,000.00,028.9,026.0,000.0,037.3,030.3,28.9,0000.0,0010.79,0005.20,0004.44
2023-07-19 20:38:00,SystemResetWarning,0836.3,5.00,000.00,029.0,026.4,000.0,037.3,030.4,28.5,0000.0,0011.46,0005.18,0004.43
2023-07-19 20:39:00,SystemResetWarning,0836.2,5.01,000.00,029.0,026.8,000.0,037.3,030.5,27.8,0000.0,0011.41,0005.17,0004.42
2023-07-19 20:40:00,SystemResetWarning,0836.3,5.00,000.00,029.0,027.2,000.0,037.3,030.6,28.2,0000.0,0010.82,0005.14,0004.41
2023-07-19 20:41:00,SystemResetWarning,0836.2,5.00,000.00,029.1,027.5,000.0,037.4,030.7,27.7,0000.0,0010.59,0005.12,0004.39
2023-07-19 20:42:00,SystemResetWarning,0836.3,5.01,000.00,029.1,027.7,000.0,037.4,030.7,27.8,0000.0,0010.86,0005.10,0004.38
2023-07-19 20:43:00,SystemResetWarning,0836.3,5.00,000.00,029.1,027.7,000.0,037.4,030.8,28.5,0000.0,0010.88,0005.06,0004.35
2023-07-19 20:44:00,SystemResetWarning,0836.3,4.98,000.00,029.1,026.2,000.0,037.3,030.6,27.5,0000.0,0010.37,0004.99,0004.31
2023-07-19 20:45:00,SystemResetWarning,0836.4,5.02,000.00,029.0,025.0,000.0,037.2,030.4,26.0,0000.0,0010.27,0004.97,0004.28
2023-07-19 20:46:00,SystemResetWarning,0836.3,5.00,000.00,029.0,025.0,000.0,037.2,030.3,26.3,0000.0,0009.95,0004.96,0004.26
2023-07-19 20:47:00,SystemResetWarning,0836.2,5.00,000.00,028.9,025.4,000.0,037.2,030.2,26.8,0000.0,0009.75,0004.93,0004.24
2023-07-19 20:48:00,SystemResetWarning,0836.3,5.00,000.00,028.9,025.8,000.0,037.2,030.3,27.7,0000.0,0009.74,0004.89,0004.21
2023-07-19 20:49:00,SystemResetWarning,0836.2,4.99,000.00,028.9,026.3,000.0,037.3,030.4,27.0,0000.0,0010.00,0004.88,0004.18
2023-07-19 20:50:00,SystemResetWarning,0836.3,5.00,000.00,028.9,026.7,000.0,037.3,030.5,27.6,0000.0,0009.59,0004.86,0004.16
2023-07-19 20:51:00,SystemResetWarning,0836.3,4.99,000.00,028.9,027.1,000.0,037.3,030.5,27.5,0000.0,0009.73,0004.80,0004.14
2023-07-19 20:52:00,SystemResetWarning,0836.3,5.00,000.00,029.0,027.4,000.0,037.3,030.6,27.5,0000.0,0009.87,0004.76,0004.13
2023-07-19 20:53:00,SystemResetWarning,0836.3,5.00,000.00,029.0,027.5,000.0,037.3,030.7,27.8,0000.0,0010.39,0004.75,0004.11
2023-07-19 20:54:00,SystemResetWarning,0836.3,4.99,000.00,029.0,026.3,000.0,037.2,030.6,27.9,0000.0,0010.12,0004.74,0004.09
2023-07-19 20:55:00,SystemResetWarning,0836.3,5.01,000.00,028.9,025.0,000.0,037.1,030.3,27.7,0000.0,0010.05,0004.74,0004.08
2023-07-19 20:56:00,SystemResetWarning,0836.3,5.01,000.00,028.9,024.9,000.0,037.1,030.2,28.3,0000.0,0010.21,0004.75,0004.08
2023-07-19 20:57:00,SystemResetWarning,0836.2,5.00,000.00,028.8,025.3,000.0,037.1,030.1,28.7,0000.0,0010.11,0004.71,0004.08
2023-07-19 20:58:00,SystemResetWarning,0836.3,5.00,000.00,028.8,025.7,000.0,037.1,030.2,28.7,0000.0,0010.14,0004.69,0004.06
2023-07-19 20:59:00,SystemResetWarning,0836.2,5.00,000.00,028.8,026.2,000.0,037.2,030.3,28.8,0000.0,0010.09,0004.67,0004.05
